Track COSMOS 2492 (GLONASS) now! COSMOS 2492 (GLONASS) is classified as:
1 39620U 14012A 25183.73981355 -.00000075 00000-0 00000-0 0 9991 2 39620 65.4971 325.7927 0010592 322.4456 37.4783 2.13103320 87790